Flag for U.S.A. Weather past 2 weeks in Bryan – College Station, Texas, U.S.A.

Now
76 °F

Mostly cloudy.


Feels Like: 76 °F
Forecast: 73 / 83 °F
Wind: 12 mph from South

Location: Easterwood Field

Current Time: May 29, 2015 at 3:59:45 AM

Latest Report: May 29, 2015 at 2:53 AM


Visibility: 10 mi

Pressure: 29.93 "Hg

Humidity: 91%

Dew point: 73 °F

Location of Bryan – College StationLocation

Historic Weather in Bryan – College Station — Graph

°F

Bryan – College Station temperature yesterday

Maximum temperature yesterday: 86 °F (at 12:53 PM)
Minimum temperature yesterday: 72 °F (at 3:53 AM)
Average temperature yesterday: 79 °F

Past Weeks' High & Low Weather Summary

 TemperatureHumidityPressure
High88 °F (May 20, 3:53 PM)97% (May 14, 3:53 AM)30.14 "Hg (May 14, 3:53 AM)
Low65 °F (May 21, 8:53 AM)55% (May 20, 3:53 PM)29.77 "Hg (May 25, 4:53 PM)
Average75 °F84%29.98 "Hg
* Reported May 14 2:53 AM — May 29 2:53 AM, Bryan – College Station, Weather by CustomWeather, © 2015

Note: Actual official high and low records may vary slightly from our data, if they occured in-between our weather recording intervals... More about our weather records

Advertising

Bryan – College Station weather history for previous 24 hours

 ConditionsComfort  
Time TempWeatherWind HumidityBarometerVisibility
2:53 AM
Fri, May 29
76 °FMostly cloudy.12 mph91%29.93 "Hg10 mi
1:53 AM77 °FPassing clouds.10 mph88%29.96 "Hg10 mi
12:53 AM77 °FPassing clouds.14 mph88%29.95 "Hg10 mi
11:53 PM
Thu, May 28
78 °FPassing clouds.10 mph84%29.97 "Hg10 mi
10:53 PM79 °FPassing clouds.10 mph82%29.96 "Hg10 mi
9:53 PM81 °FPassing clouds.10 mph77%29.95 "Hg10 mi
8:53 PM81 °FCloudy.7 mph79%29.92 "Hg10 mi
7:53 PM82 °FPassing clouds.7 mph77%29.90 "Hg10 mi
6:53 PM83 °FSunny.10 mph70%29.90 "Hg10 mi
5:53 PM82 °FSunny.12 mph60%29.92 "Hg10 mi
4:53 PM80 °FScattered clouds.8 mph64%29.96 "Hg10 mi
3:53 PM80 °FLight rain. Broken clouds.13 mph79%30.00 "Hg10 mi
2:53 PM84 °FSunny.8 mph70%30.01 "Hg10 mi
1:53 PM86 °FPassing clouds.12 mph63%30.03 "Hg10 mi
12:53 PM86 °FScattered clouds.12 mph63%30.05 "Hg10 mi
11:53 AM84 °FBroken clouds.10 mph70%30.08 "Hg10 mi
10:53 AM82 °FPartly sunny.12 mph74%30.07 "Hg10 mi
9:53 AM79 °FOvercast.12 mph82%30.06 "Hg10 mi
8:53 AM76 °FLow clouds.8 mph91%30.06 "Hg10 mi
7:53 AM73 °FPartly sunny.7 mph94%30.05 "Hg10 mi
6:53 AM72 °FPassing clouds.3 mph93%30.05 "Hg9 mi
5:53 AM72 °FOvercast.3 mph93%30.05 "Hg10 mi
5:00 AM72 °FPassing clouds.No wind91%30.06 "Hg10 mi
3:53 AM72 °FClear.5 mph93%30.01 "Hg10 mi
Weather by CustomWeather, © 2015

See weather overviewHow to use our weather pages